Powrót do katalogu

COSMOS 1275 DEB

AktywnyPO
NORAD 19027·DEBRIS·🇷🇺 Russia

Wystrzelony Jun 4, 1981 z Plesetsk Cosmodrome

Loading…

Następne Przeloty (najbliższe 24 godziny)

TLE

ŚwieżeSource: Space-Track

Epoka: Sep 14, 2026, 16:14 UTC

1 19027U 81053ME  26257.67684865  .00002134  00000-0  98711-3 0  9997
2 19027  83.0014 157.0008 0057760 244.5360 142.0531 14.19612680 94532

Śledź COSMOS 1275 DEB w czasie rzeczywistym z AllMySat

Download on the App Store